Voltar ao catálogo

STARLINK-4400

AtivoComunicaçõesSSO
NORAD 53468·PAYLOAD·🇺🇸 United States

Lançado Aug 12, 2022 de Vandenberg Space Force Base

Loading…

Próximas Passagens (próximas 24 horas)

TLE

AtualizadoSource: CelesTrak SupGP

Época: Sep 15, 2026, 02:42 UTC

1 53468C 22099D   26258.11298611  .00076031  00000+0  46230-2 0  2581
2 53468  97.2846  12.2449 0001158  86.2584  77.7970 15.10506147    12

Acompanhe STARLINK-4400 em tempo real com AllMySat

Download on the App Store